GAOFEN-1 03

Last updated on Mon Jun 22 2026 00:02:52 GMT+0000 (Coordinated Universal Time)

1 43260U 18031B 26172.54615247 .00000465 00000+0 74163-4 0 9999 2 43260 98.0516 234.9193 0003641 70.2600 289.9002 14.76473961443331
UTC large
Height (km)
Speed (km/s)
/
Latitude / Longitude
Inclination (degrees)
Orbital Period (minutes)
Azimuth
Elevation
Range (km)
Doppler Factor

Next 0 passes for location: London (51.5072 / 0.1276)

No passes found over London.
GAOFEN-1 03